Aérodrome :
LOGIN :

S'inscrire | Disclaimer

   EN    FR    IT 

 










Légende :    VFR   VFR Marginal   IFR   IFR Intensif   IFR Très Intensif
Visi : 
Plafond : 
>= 8 km
>= 3000ft
5 à 8 km
1000 à 3000 ft
1500m à 5 km
500 à 1000 ft
800 à 1500m
200 à 500 ft
< 800m
< 200 ft
Symboles :   Orages  Brouillard  Fortes neiges  Fortes précipitations  Vent > 20 kt
SIGMETs :   Divers  Orages  Givrage  Turbulence  Onde Orograph.  Cendres Volcan.







- Altitude de l'aérodrome : 325 ft
- Code IATA : POX
- Voir les cartes d'approche


LFPT - Pontoise

DERNIER METAR :
  • 171500Z AUTO 25011KT 9999 FEW033/// SCT042/// BKN060/// ///TCU 25/17 Q1015

METARs EXPIRÉS :
  • 171430Z AUTO 23015KT 9999 SCT032 BKN068 24/17 Q1016
  • 171400Z AUTO 22013KT 190V260 9999 FEW020 SCT062 25/19 Q1016
  • 171330Z AUTO 20014KT 9999 FEW020 SCT060 BKN072 23/18 Q1016
  • 171300Z AUTO 22010KT 9999 FEW022 BKN029 OVC036 22/18 Q1016
  • 171230Z AUTO 21009KT 9999 OVC018 21/18 Q1017

TAF N/A
ATIS : +33 1 30 30 52 08
Pas de NOTAMs connus pour ce terrain.



MET'MAP, la Météo Aéronautique d'un coup d'oeil ! - Copyright ORBIFLY Décembre 2007 - Disclaimer

ORBIFLY MET'MAP TEAM :

Programmation & Développement : Alexandra Zaïnal
Conception & Développement : Baudouin d'Aumeries
Co-Programmation & Développement : Marc-Olivier Méhu
Soutien technique & logistique : Manuel Goepfert

Contact : metmap@orbifly.com




SOURCES & CREDITS :

   NOAA